Regional Weather Roundup
Issued by NWS Sterling, VA

Home | Current Version | Previous Version | Text Only | Print | Product List | Glossary On
Versions: 1 2 3 4 5 6 7 8 9 10 11 12 13 14 15 16 17 18 19 20 21 22 23 24 25 26 27 28 29 30 31 32 33 34 35 36 37 38 39 40 41 42 43 44 45 46 47 48 49 50
000
ASUS41 KLWX 301210
RWRLWX

REGIONAL WEATHER ROUNDUP
NATIONAL WEATHER SERVICE BALTIMORE MD/WASHINGTON DC
800 AM EDT TUE JUN 30 2015

Note: "FAIR" indicates few or no clouds below 12,000 feet
with no significant weather and/or obstructions to visibility.
 TC=TEMPERATURE CELSIUS

 * =Non NWS site. Station does not report precipitation (e.g. rain,
    snow, etc.), thunder, or fog.

DCZ001-MDZ009-015-VAZ040>042-051-053>054-301300-
WASHINGTON METRO

CITY           SKY/WX    TMP DP  RH WIND       PRES   REMARKS
WASHINGTON NAT PTSUNNY   76  70  82 S8        29.92S
DULLES         CLOUDY    70  66  87 S7        29.91S
ANDREWS AFB    MOSUNNY   74  72  94 S10       29.91F
FT BELVOIR     SUNNY     73  71  93 SE3       29.91S FOG
QUANTICO       MOSUNNY   74  68  81 S13       29.92R
COLLEGE PARK*  SUNNY     73  70  88 SE5       29.91S
LEESBURG*      CLOUDY    70  68  94 S3        29.92S
MANASSAS*      CLOUDY    70  68  94 CALM        N/A
GAITHERSBURG*  CLOUDY    70  66  88 SE8       29.95S

$$

MDZ006>007-011-014-301300-
BALTIMORE METRO

CITY           SKY/WX    TMP DP  RH WIND       PRES   REMARKS
BWI AIRPORT    PTSUNNY   75  69  81 S8        29.91F
MD SCIENCE CTR   N/A     75  70  84 MISG      29.94R
MARTIN STATE   PTSUNNY   75  72  88 SE12      29.94S
ANNAPOLIS      PTSUNNY   75  71  87 SE8       29.92S
FORT MEADE*    PTSUNNY   72  68  88 S5        29.94S

$$

MDZ012-015-019>023-301300-
MARYLAND EASTERN SHORE

CITY           SKY/WX    TMP DP  RH WIND       PRES   REMARKS
OCEAN CITY     SUNNY     74  69  85 VRB6      29.97S
SALISBURY      SUNNY     74  70  87 SE9       29.96S
BAY BRIDGE AP*   N/A     73  70  88 S10       29.93S
CAMBRIDGE*     SUNNY     77  72  83 SE13      29.94S

$$

MDZ017>025-301300-
SOUTHERN MARYLAND

CITY           SKY/WX    TMP DP  RH WIND       PRES   REMARKS
PATUXENT RIVER MOSUNNY   77  71  82 S7        29.93S
ST INIGOES     SUNNY     78  72  81 SE8       29.93R
LEONARDTOWN*   SUNNY     75  70  83 S6        29.95S

$$

MDZ003>005-301300-
NORTH CENTRAL MARYLAND

CITY           SKY/WX    TMP DP  RH WIND       PRES   REMARKS
FREDERICK*     CLOUDY    70  70 100 CALM      29.94R
HAGERSTOWN APT PTSUNNY   71  63  75 S7        29.90S
WESTMINSTER*   CLOUDY    70  66  88 S9        29.93R

$$

MDZ501>502-301300-
WESTERN MARYLAND

CITY           SKY/WX    TMP DP  RH WIND       PRES   REMARKS
OAKLAND*       CLOUDY    61 N/A N/A SW8       29.96S
CUMBERLAND*    MOSUNNY   68  64  88 CALM      29.94R

$$

VAZ025>031-301300-
SHENANDOAH VALLEY

CITY           SKY/WX    TMP DP  RH WIND       PRES   REMARKS
WINCHESTER*    SUNNY     70  63  78 S3        29.90R
FRONT ROYAL*   FAIR      66  63  88 CALM      29.90R
LURAY*         FAIR      70  64  83 CALM      29.91S
NEW MARKET*    FAIR      68  62  81 CALM      29.91R
STAUNTON*      MOSUNNY   69  62  78 CALM      29.95R
WAYNESBORO*    PTSUNNY   70  61  72 CALM      29.93S

$$

WVZ021-048>050-054>055-301300-
EASTERN WEST VIRGINIA PANHANDLE

CITY           SKY/WX    TMP DP  RH WIND       PRES   REMARKS
MARTINSBURG    MOSUNNY   68  62  81 CALM      29.90S
PETERSBURG*    MOSUNNY   68  61  78 CALM      29.92R

$$

VAZ036>039-050-301300-
CENTRAL FOOTHILLS

CITY           SKY/WX    TMP DP  RH WIND       PRES   REMARKS
CHARLOTTESVILL PTSUNNY   66  62  87 CALM      29.93R
CULPEPER*        N/A     66  65  96 CALM      29.93R
ORANGE*        PTSUNNY   68  66  94 S3        29.93S
GORDONSVILLE*  FAIR      66  64  94 SW7       29.92R
WARRENTON*     PTSUNNY   68  67  97 CALM      29.92R

$$

VAZ055>057-301300-
NORTH AND CENTRAL PIEDMONT

CITY           SKY/WX    TMP DP  RH WIND       PRES   REMARKS
FREDERICKSBRG* MOSUNNY   75  72  88 S7        29.90S
STAFFORD*      MOSUNNY   70  67  89 CALM      29.95S

$$

NCZ024-NYZ072-PAZ021-071-VAZ022-071-301300-
OTHER REGIONAL OBSERVATIONS

CITY           SKY/WX    TMP DP  RH WIND       PRES   REMARKS
NEW YORK CITY  PTSUNNY   73  59  61 VRB5      30.02R
PHILADELPHIA   PTSUNNY   73  64  73 S8        29.96S
PITTSBURGH     PTSUNNY   66  63  90 SW7       29.86S
ROANOKE        MOSUNNY   69  63  81 W6        29.97R
RICHMOND       MOSUNNY   74  69  85 SE7       29.93S
RALEIGH        MOSUNNY   74  63  68 S5        29.97R

$$

ANZ530>537-301300-
MARINE OBSERVATIONS

STATION/POSITION TIME  TEMP    WIND        PRES
                       AIR SEA DIR/SP/G
                 (UTC) (F)     (DEG/KT/KT) (MB)
THOMAS PT LIGHT  1200   74 76  150/ 15/ 17 1013.6
BALT KEY BRIDGE  1100   73     130/  8/ 10 1012.8R
COVE POINT       1100   76     200/ 16/ 18 1014.2R
LEWISETTA        1100   75 79  190/ 10/ 12 1013.4R
SOLOMONS ISLAND  1100      78                N/A
PINEY POINT      1100          190/ 12/ 14   N/A

$$




USA.gov is the U.S. government's official web portal to all federal, state and local government web resources and services.